Location: St. Louis
(38.6270°N, 90.1994°W)
Time: 10:59:26
(UTC-06:00)

S-56A Canister/Altair - Pass Details

Date: 07 December 2021
Orbit: 634 x 2499 km, 38.9° (Epoch: 26 January)

Event Time Altitude Azimuth Distance (km) Brightness Sun altitude
Rises 03:34:08 0° 284° (WNW) 4,207 - -40.5°
Reaches altitude 10° 03:37:30 10° 280° (W) 2,948 - -39.8°
Maximum altitude 03:44:01 52° 206° (SSW) 1,019 - -38.6°
Exits shadow 03:48:05 14° 132° (SE) 1,908 10.0 -37.8°
Drops below altitude 10° 03:48:46 10° 129° (SE) 2,155 10.3 -37.6°
Sets 03:50:54 0° 124° (SE) 2,982 11.2 -37.2°
